FW3222 Weather Reports


Display with metric or nautical units.
time (UTC)temp
F
wind
direction
speed
MPH
gust
MPH
rain 1hr
in
rain 24hr
in
rain mn
in
humidity
%
barometer
mb
20260906082848 59 195 0.0 0.0 0.00 0.00 0.00 68 1014.3
20260906082548 59 195 0.0 0.0 0.00 0.00 0.00 68 1014.3
20260906082251 59 195 0.0 0.0 0.00 0.00 0.00 68 1014.3
20260906081946 59 195 0.0 0.0 0.00 0.00 0.00 68 1014.2
20260906081636 59 206 0.0 0.0 0.00 0.00 0.00 67 1014.3
20260906080904 59 160 0.0 0.0 0.00 0.00 0.00 67 1014.3
20260906080600 59 160 0.0 0.0 0.00 0.00 0.00 67 1014.2
20260906080251 59 160 0.0 0.0 0.00 0.00 0.00 67 1014.2
20260906075952 59 160 0.0 0.0 0.00 0.00 0.00 67 1014.2
20260906075231 59 160 0.0 0.0 0.00 0.00 0.00 67 1014.3
20260906074934 59 160 0.0 0.0 0.00 0.00 0.00 67 1014.3
20260906074627 59 160 0.0 0.0 0.00 0.00 0.00 66 1014.2
20260906074330 59 160 0.0 0.0 0.00 0.00 0.00 66 1014.3
20260906074026 59 160 0.0 0.0 0.00 0.00 0.00 66 1014.2
20260906073724 59 160 0.0 0.0 0.00 0.00 0.00 66 1014.2
20260906073411 59 160 0.0 0.0 0.00 0.00 0.00 66 1014.1
20260906073103 60 160 0.0 0.0 0.00 0.00 0.00 66 1014.2
20260906072753 60 160 0.0 0.0 0.00 0.00 0.00 66 1014.1
20260906072444 60 160 0.0 0.0 0.00 0.00 0.00 66 1014.1
20260906072146 60 160 0.0 0.0 0.00 0.00 0.00 66 1014.1
20260906071416 60 160 0.0 0.0 0.00 0.00 0.00 66 1014.1
20260906071118 60 160 0.0 0.0 0.00 0.00 0.00 66 1014.0
20260906070817 60 160 0.0 0.0 0.00 0.00 0.00 66 1014.0
20260906070504 60 160 0.0 0.0 0.00 0.00 0.00 66 1014.1
20260906065728 60 160 0.0 0.0 0.00 0.00 0.00 66 1014.0
20260906065423 60 160 0.0 0.0 0.00 0.00 0.00 66 1014.1
20260906065125 60 160 0.0 0.0 0.00 0.00 0.00 66 1014.1
20260906064823 60 160 0.0 0.0 0.00 0.00 0.00 66 1014.1
20260906064514 60 160 0.0 0.0 0.00 0.00 0.00 66 1014.1
20260906064204 60 160 0.0 0.0 0.00 0.00 0.00 66 1014.0
20260906063907 60 160 0.0 0.0 0.00 0.00 0.00 66 1014.0
20260906063605 61 160 0.0 0.0 0.00 0.00 0.00 66 1014.1
20260906063303 61 160 0.0 0.0 0.00 0.00 0.00 66 1014.1
20260906062541 61 160 0.0 0.0 0.00 0.00 0.00 66 1014.0
20260906062244 61 160 0.0 0.0 0.00 0.00 0.00 66 1014.0
20260906061933 61 160 0.0 0.0 0.00 0.00 0.00 66 1014.2
20260906061621 61 160 0.0 0.0 0.00 0.00 0.00 66 1014.1
20260906061310 61 160 0.0 0.0 0.00 0.00 0.00 66 1014.1
20260906060959 61 160 0.0 0.0 0.00 0.00 0.00 66 1014.0
20260906060654 61 160 0.0 0.0 0.00 0.00 0.00 66 1014.1
20260906060347 61 160 0.0 0.0 0.00 0.00 0.00 66 1014.0
20260906060044 61 160 0.0 0.0 0.00 0.00 0.00 65 1014.1
20260906055744 61 160 0.0 0.0 0.00 0.00 0.00 65 1014.1
20260906055441 61 160 0.0 0.0 0.00 0.00 0.00 65 1014.1
20260906055136 61 160 0.0 0.0 0.00 0.00 0.00 65 1014.2
20260906054833 61 160 0.0 0.0 0.00 0.00 0.00 65 1014.2
20260906054524 61 160 0.0 0.0 0.00 0.00 0.00 65 1014.2
20260906054215 61 160 0.0 0.0 0.00 0.00 0.00 65 1014.1
20260906053904 62 160 0.0 0.0 0.00 0.00 0.00 65 1014.2
20260906053601 62 160 0.0 0.0 0.00 0.00 0.00 65 1014.1
20260906053259 62 160 0.0 0.0 0.00 0.00 0.00 65 1014.3
20260906052959 62 160 0.0 0.0 0.00 0.00 0.00 65 1014.3
20260906052651 62 160 0.0 0.0 0.00 0.00 0.00 65 1014.3
20260906052352 62 160 0.0 0.0 0.00 0.00 0.00 65 1014.3
20260906052046 62 160 0.0 0.0 0.00 0.00 0.00 65 1014.3
20260906051734 62 160 0.0 0.0 0.00 0.00 0.00 65 1014.2
20260906051424 62 160 0.0 0.0 0.00 0.00 0.00 65 1014.4
20260906051112 62 160 0.0 0.0 0.00 0.00 0.00 65 1014.3
20260906050757 62 160 0.0 0.0 0.00 0.00 0.00 65 1014.4
20260906050453 62 160 0.0 0.0 0.00 0.00 0.00 65 1014.4
20260906050148 62 160 0.0 0.0 0.00 0.00 0.00 65 1014.2
20260906045839 62 160 0.0 0.0 0.00 0.00 0.00 65 1014.3
20260906045530 62 160 0.0 0.0 0.00 0.00 0.00 65 1014.3
20260906045224 62 161 0.0 0.0 0.00 0.00 0.00 65 1014.3
20260906044915 62 161 0.0 0.0 0.00 0.00 0.00 65 1014.3
20260906044616 62 160 0.0 0.0 0.00 0.00 0.00 65 1014.2
20260906043855 62 159 0.0 0.0 0.00 0.00 0.00 64 1014.3
20260906043551 63 159 0.0 0.0 0.00 0.00 0.00 64 1014.3
20260906043239 63 96 0.0 0.0 0.00 0.00 0.00 64 1014.4
20260906042934 63 96 0.0 0.0 0.00 0.00 0.00 64 1014.4
20260906042214 63 96 0.0 0.0 0.00 0.00 0.00 64 1014.4
20260906041505 63 86 0.0 0.0 0.00 0.00 0.00 64 1014.3
20260906040319 63 53 0.0 0.0 0.00 0.00 0.00 64 1014.3
20260906040006 63 52 0.0 0.0 0.00 0.00 0.00 64 1014.3
20260906035706 63 52 0.0 0.0 0.00 0.00 0.00 64 1014.3
20260906035406 63 52 0.0 0.0 0.00 0.00 0.00 64 1014.3
20260906034640 63 53 0.0 0.0 0.00 0.00 0.00 64 1014.3
20260906034328 63 53 0.0 0.0 0.00 0.00 0.00 64 1014.3
20260906033605 64 52 0.0 0.0 0.00 0.00 0.00 63 1014.2
20260906033255 64 53 0.0 0.0 0.00 0.00 0.00 64 1014.3
20260906032955 64 57 0.0 0.0 0.00 0.00 0.00 63 1014.2
20260906032657 64 57 0.0 0.0 0.00 0.00 0.00 64 1014.2
20260906031935 64 57 0.0 0.0 0.00 0.00 0.00 64 1014.1
20260906031627 64 57 0.0 0.0 0.00 0.00 0.00 64 1014.2
20260906031330 64 57 0.0 0.0 0.00 0.00 0.00 64 1014.1
20260906031031 64 57 0.0 0.0 0.00 0.00 0.00 64 1014.1
20260906030310 65 78 0.0 0.0 0.00 0.00 0.00 64 1014.1
20260906030005 65 145 0.0 0.0 0.00 0.00 0.00 64 1014.1
20260906025706 65 121 0.0 0.0 0.00 0.00 0.00 64 1014.1
20260906025403 65 133 0.0 0.0 0.00 0.00 0.00 64 1014.1
20260906025051 65 69 0.0 0.0 0.00 0.00 0.00 63 1013.9
20260906024748 65 69 0.0 0.0 0.00 0.00 0.00 63 1013.9
20260906024446 65 69 0.0 0.0 0.00 0.00 0.00 63 1013.9
20260906024134 65 69 0.0 0.0 0.00 0.00 0.00 63 1013.8
20260906023831 65 69 0.0 0.0 0.00 0.00 0.00 63 1013.9
20260906023519 65 34 0.0 0.0 0.00 0.00 0.00 63 1013.9
20260906023213 65 34 0.0 0.0 0.00 0.00 0.00 63 1013.9
20260906022915 65 34 0.0 0.0 0.00 0.00 0.00 63 1013.8
20260906022605 65 34 0.0 0.0 0.00 0.00 0.00 63 1013.7
20260906022307 65 34 0.0 0.0 0.00 0.00 0.00 63 1013.7
20260906021536 66 36 0.0 0.0 0.00 0.00 0.00 63 1013.7
20260906020817 66 36 0.0 0.0 0.00 0.00 0.00 63 1013.6
20260906020506 66 36 0.0 0.0 0.00 0.00 0.00 63 1013.7
20260906020208 66 36 0.0 0.0 0.00 0.00 0.00 63 1013.6
20260906015911 66 36 0.0 0.0 0.00 0.00 0.00 63 1013.7
20260906015609 66 36 0.0 0.0 0.00 0.00 0.00 62 1013.6
20260906015300 66 36 0.0 0.0 0.00 0.00 0.00 61 1013.6
20260906014949 67 36 0.0 0.0 0.00 0.00 0.00 61 1013.5
20260906014635 67 58 0.0 0.0 0.00 0.00 0.00 61 1013.4
20260906014336 67 58 0.0 0.0 0.00 0.00 0.00 61 1013.3
20260906014037 67 58 0.0 0.0 0.00 0.00 0.00 61 1013.3
20260906013736 67 58 0.0 0.0 0.00 0.00 0.00 61 1013.3
20260906013439 67 58 0.0 0.0 0.00 0.00 0.00 61 1013.3
20260906012729 68 58 0.0 0.0 0.00 0.00 0.00 61 1013.3
20260906012418 68 58 0.0 0.0 0.00 0.00 0.00 60 1013.2
20260906012104 68 58 0.0 0.0 0.00 0.00 0.00 61 1013.2
20260906011340 68 57 0.0 0.0 0.00 0.00 0.00 59 1013.1
20260906011032 68 57 0.0 0.0 0.00 0.00 0.00 59 1013.2
20260906010728 69 58 0.0 0.0 0.00 0.00 0.00 59 1013.2
20260906010001 69 58 0.0 0.0 0.00 0.00 0.00 58 1013.2
20260906005700 69 58 0.0 0.0 0.00 0.00 0.00 58 1013.2
20260906005401 69 58 0.0 0.0 0.00 0.00 0.00 58 1013.2
20260906005057 69 58 0.0 0.0 0.00 0.00 0.00 58 1013.2
20260906004746 70 58 0.0 0.0 0.00 0.00 0.00 58 1013.1
20260906004441 70 58 0.0 0.0 0.00 0.00 0.00 58 1013.1
20260906004132 70 58 0.0 0.0 0.00 0.00 0.00 57 1013.1
20260906003407 70 58 0.0 0.0 0.00 0.00 0.00 56 1013.0
20260906002638 71 58 0.0 0.0 0.00 0.00 0.00 56 1012.9
20260906001858 71 58 0.0 0.0 0.00 0.00 0.00 55 1012.8
20260906001547 72 58 0.0 0.0 0.00 0.00 0.00 55 1012.7
20260906000815 72 58 0.0 0.0 0.00 0.00 0.00 54 1012.6
20260906000511 72 58 0.0 0.0 0.00 0.00 0.00 54 1012.6
20260906000159 73 58 0.0 0.0 0.00 0.00 0.00 53 1012.4
20260905235846 73 58 0.0 0.0 0.00 0.00 0.00 53 1012.4
20260905235539 73 58 0.0 0.0 0.00 0.00 0.00 53 1012.4
20260905235243 74 58 0.0 0.0 0.00 0.00 0.00 52 1012.3
20260905234935 74 58 0.0 0.0 0.00 0.00 0.00 52 1012.1
20260905234637 74 57 0.0 0.0 0.00 0.00 0.00 51 1012.2
20260905233915 74 58 0.0 0.0 0.00 0.00 0.00 50 1012.2
20260905233201 75 54 0.0 0.0 0.00 0.00 0.00 49 1012.0
20260905232905 75 52 0.0 0.0 0.00 0.00 0.00 49 1012.0
20260905232555 75 52 0.0 0.0 0.00 0.00 0.00 49 1012.1
20260905231832 76 44 0.0 2.0 0.00 0.00 0.00 47 1012.2
20260905231123 76 59 0.0 3.0 0.00 0.00 0.00 49 1012.2
20260905230817 76 67 0.0 2.0 0.00 0.00 0.00 49 1012.2
20260905225637 77 343 0.0 2.0 0.00 0.00 0.00 47 1012.0
20260905225336 77 5 0.0 2.0 0.00 0.00 0.00 47 1012.1
20260905225030 77 90 0.0 6.0 0.00 0.00 0.00 46 1012.2
20260905224729 77 55 1.0 8.0 0.00 0.00 0.00 46 1012.2
20260905224425 77 346 1.0 8.0 0.00 0.00 0.00 46 1012.1
20260905224126 77 86 1.0 8.0 0.00 0.00 0.00 46 1012.1
20260905223814 77 21 1.0 8.0 0.00 0.00 0.00 46 1012.1
20260905223502 77 78 2.0 8.0 0.00 0.00 0.00 45 1012.0
20260905222739 78 25 0.0 3.0 0.00 0.00 0.00 45 1011.9
20260905222430 78 114 0.0 6.0 0.00 0.00 0.00 45 1011.9
20260905222118 78 11 0.0 6.0 0.00 0.00 0.00 45 1011.9
20260905221811 78 332 1.0 6.0 0.00 0.00 0.00 45 1011.8
20260905221458 78 40 1.0 9.0 0.00 0.00 0.00 44 1011.8
20260905221147 78 104 2.0 9.0 0.00 0.00 0.00 44 1011.8
20260905220843 78 13 2.0 9.0 0.00 0.00 0.00 44 1011.8
20260905220546 78 138 3.0 9.0 0.00 0.00 0.00 45 1011.8
20260905220244 78 70 3.0 9.0 0.00 0.00 0.00 44 1011.8
20260905215931 78 86 3.0 9.0 0.00 0.00 0.00 44 1011.7
20260905215622 78 117 1.0 8.0 0.00 0.00 0.00 47 1011.8
20260905215308 78 323 1.0 7.0 0.00 0.00 0.00 46 1011.7
20260905214958 78 108 1.0 7.0 0.00 0.00 0.00 46 1011.7
20260905214237 78 39 1.0 4.0 0.00 0.00 0.00 45 1011.7
20260905213923 78 13 1.0 4.0 0.00 0.00 0.00 43 1011.6
20260905213613 78 265 1.0 9.0 0.00 0.00 0.00 44 1011.6
20260905213303 79 334 2.0 9.0 0.00 0.00 0.00 44 1011.6
20260905212951 79 28 2.0 9.0 0.00 0.00 0.00 44 1011.7
20260905212640 79 29 3.0 9.0 0.00 0.00 0.00 45 1011.7
20260905211911 79 10 2.0 9.0 0.00 0.00 0.00 44 1011.5
20260905211152 78 63 2.0 7.0 0.00 0.00 0.00 47 1011.6
20260905210853 78 336 1.0 8.0 0.00 0.00 0.00 46 1011.5
20260905205648 78 107 1.0 8.0 0.00 0.00 0.00 47 1011.6
20260905205338 78 355 1.0 8.0 0.00 0.00 0.00 47 1011.6
20260905205025 78 355 1.0 7.0 0.00 0.00 0.00 48 1011.5
20260905204714 78 355 2.0 7.0 0.00 0.00 0.00 46 1011.6
20260905204409 78 310 2.0 7.0 0.00 0.00 0.00 45 1011.6
20260905204104 78 96 2.0 7.0 0.00 0.00 0.00 46 1011.6
20260905203807 79 101 2.0 6.0 0.00 0.00 0.00 46 1011.7
20260905203456 79 34 2.0 7.0 0.00 0.00 0.00 46 1011.7
20260905203143 79 317 2.0 7.0 0.00 0.00 0.00 47 1011.6
20260905202840 79 30 1.0 7.0 0.00 0.00 0.00 45 1011.5
20260905202124 79 322 1.0 7.0 0.00 0.00 0.00 46 1011.5
20260905200938 79 24 1.0 6.0 0.00 0.00 0.00 47 1011.5
20260905200635 79 5 0.0 4.0 0.00 0.00 0.00 48 1011.5
20260905200336 79 328 0.0 4.0 0.00 0.00 0.00 48 1011.6
20260905200033 79 5 1.0 4.0 0.00 0.00 0.00 52 1011.6
20260905195719 79 57 1.0 4.0 0.00 0.00 0.00 49 1011.7
20260905195420 79 25 1.0 4.0 0.00 0.00 0.00 50 1011.8
20260905195118 79 12 1.0 4.0 0.00 0.00 0.00 49 1011.8
20260905194817 79 107 1.0 6.0 0.00 0.00 0.00 48 1011.7
20260905194518 80 116 1.0 6.0 0.00 0.00 0.00 48 1011.7
20260905194205 80 17 1.0 6.0 0.00 0.00 0.00 49 1011.8
20260905193907 80 9 1.0 6.0 0.00 0.00 0.00 50 1011.8
20260905193606 79 96 1.0 6.0 0.00 0.00 0.00 51 1011.8
20260905193304 79 327 2.0 6.0 0.00 0.00 0.00 49 1011.6
20260905193000 79 89 1.0 10.0 0.00 0.00 0.00 50 1011.7
20260905192705 79 90 1.0 10.0 0.00 0.00 0.00 48 1011.7
20260905192406 79 29 1.0 10.0 0.00 0.00 0.00 48 1011.8
20260905192104 80 29 1.0 10.0 0.00 0.00 0.00 48 1011.8
20260905191759 80 71 2.0 10.0 0.00 0.00 0.00 47 1011.8
20260905191452 80 90 2.0 10.0 0.00 0.00 0.00 49 1011.7
20260905191146 80 5 2.0 10.0 0.00 0.00 0.00 46 1011.7
20260905190420 81 346 2.0 7.0 0.00 0.00 0.00 46 1011.6
20260905190112 82 28 2.0 7.0 0.00 0.00 0.00 44 1011.7
20260905185803 82 341 1.0 7.0 0.00 0.00 0.00 48 1011.6
20260905185040 81 206 1.0 7.0 0.00 0.00 0.00 48 1011.7
20260905184735 81 159 1.0 7.0 0.00 0.00 0.00 49 1011.7
20260905184437 80 270 1.0 7.0 0.00 0.00 0.00 49 1011.8
20260905183719 80 88 0.0 4.0 0.00 0.00 0.00 49 1011.8
20260905183421 80 13 1.0 9.0 0.00 0.00 0.00 47 1011.8
20260905182657 81 76 1.0 9.0 0.00 0.00 0.00 46 1011.9
20260905181921 82 29 2.0 9.0 0.00 0.00 0.00 45 1011.9
20260905181615 82 38 2.0 9.0 0.00 0.00 0.00 43 1011.9
20260905180839 82 223 2.0 8.0 0.00 0.00 0.00 53 1012.0
20260905180531 81 329 2.0 8.0 0.00 0.00 0.00 49 1012.1
20260905180223 81 344 3.0 8.0 0.00 0.00 0.00 48 1012.1
20260905175925 80 301 3.0 8.0 0.00 0.00 0.00 47 1012.2
20260905175624 80 275 3.0 8.0 0.00 0.00 0.00 49 1012.2
20260905174857 80 5 2.0 8.0 0.00 0.00 0.00 50 1012.2
20260905174556 80 14 2.0 8.0 0.00 0.00 0.00 49 1012.2
20260905174254 80 68 2.0 8.0 0.00 0.00 0.00 47 1012.4
20260905173954 80 15 1.0 6.0 0.00 0.00 0.00 49 1012.4
20260905173658 80 116 1.0 6.0 0.00 0.00 0.00 46 1012.4
20260905173349 81 30 1.0 6.0 0.00 0.00 0.00 49 1012.5
20260905173038 81 98 1.0 6.0 0.00 0.00 0.00 52 1012.5
20260905172738 81 223 1.0 6.0 0.00 0.00 0.00 48 1012.5
20260905172435 80 284 2.0 7.0 0.00 0.00 0.00 49 1012.5
20260905172122 80 265 2.0 7.0 0.00 0.00 0.00 49 1012.5
20260905171817 80 5 2.0 7.0 0.00 0.00 0.00 49 1012.5
20260905171518 80 46 2.0 7.0 0.00 0.00 0.00 48 1012.6
20260905171220 80 75 2.0 7.0 0.00 0.00 0.00 48 1012.7
20260905170911 79 319 1.0 7.0 0.00 0.00 0.00 47 1012.7
20260905170604 80 327 1.0 7.0 0.00 0.00 0.00 49 1012.7
20260905170254 80 44 1.0 7.0 0.00 0.00 0.00 49 1012.9
20260905165952 79 9 1.0 7.0 0.00 0.00 0.00 49 1012.8
20260905165234 79 355 3.0 7.0 0.00 0.00 0.00 50 1013.0
20260905164932 79 282 2.0 7.0 0.00 0.00 0.00 49 1013.0
20260905164632 79 323 2.0 7.0 0.00 0.00 0.00 51 1013.1
20260905164320 78 335 2.0 7.0 0.00 0.00 0.00 52 1013.2
20260905164016 78 13 2.0 7.0 0.00 0.00 0.00 51 1013.1
20260905163710 78 355 2.0 7.0 0.00 0.00 0.00 50 1013.2
20260905162948 78 89 1.0 8.0 0.00 0.00 0.00 50 1013.0
20260905162643 78 134 1.0 8.0 0.00 0.00 0.00 51 1013.2
20260905162336 78 0 1.0 8.0 0.00 0.00 0.00 49 1013.2
20260905162035 78 215 2.0 8.0 0.00 0.00 0.00 50 1013.2
20260905161730 78 25 2.0 8.0 0.00 0.00 0.00 50 1013.3
20260905161419 78 291 2.0 8.0 0.00 0.00 0.00 50 1013.4
20260905161112 78 355 2.0 8.0 0.00 0.00 0.00 50 1013.4
20260905160814 77 314 2.0 8.0 0.00 0.00 0.00 52 1013.4
20260905160514 77 49 2.0 8.0 0.00 0.00 0.00 53 1013.5
20260905160206 77 217 1.0 8.0 0.00 0.00 0.00 53 1013.6
20260905155447 77 93 1.0 4.0 0.00 0.00 0.00 51 1013.5
20260905155141 77 43 1.0 4.0 0.00 0.00 0.00 54 1013.5
20260905154842 76 0 0.0 4.0 0.00 0.00 0.00 54 1013.5
20260905154543 77 63 0.0 3.0 0.00 0.00 0.00 54 1013.7
20260905154233 76 294 0.0 3.0 0.00 0.00 0.00 54 1013.7
20260905153931 76 210 0.0 3.0 0.00 0.00 0.00 54 1013.7
20260905152739 76 185 1.0 6.0 0.00 0.00 0.00 53 1013.6
20260905152440 76 350 1.0 6.0 0.00 0.00 0.00 53 1013.6
20260905152139 76 273 1.0 6.0 0.00 0.00 0.00 53 1013.6
20260905151832 76 277 1.0 6.0 0.00 0.00 0.00 52 1013.6
20260905151536 76 58 1.0 6.0 0.00 0.00 0.00 52 1013.7
20260905151226 75 69 1.0 6.0 0.00 0.00 0.00 53 1013.7
20260905150922 75 65 1.0 5.0 0.00 0.00 0.00 55 1013.6
20260905150624 75 67 1.0 4.0 0.00 0.00 0.00 55 1013.7
20260905150324 75 42 1.0 4.0 0.00 0.00 0.00 54 1013.6
20260905150019 75 66 1.0 4.0 0.00 0.00 0.00 53 1013.6
20260905145714 75 299 0.0 4.0 0.00 0.00 0.00 56 1013.7
20260905145406 75 32 0.0 3.0 0.00 0.00 0.00 55 1013.7
20260905145106 75 288 1.0 0.0 0.00 0.00 0.00 57 1013.6
20260905144755 75 268 1.0 5.0 0.00 0.00 0.00 55 1013.6
20260905144449 74 34 2.0 4.0 0.00 0.00 0.00 56 1013.5
20260905143710 74 9 1.0 4.0 0.00 0.00 0.00 55 1013.4
20260905143359 74 12 1.0 3.0 0.00 0.00 0.00 54 1013.4
20260905142632 74 28 0.0 1.0 0.00 0.00 0.00 57 1013.4
20260905141915 74 85 0.0 7.0 0.00 0.00 0.00 58 1013.3
20260905141615 74 82 1.0 7.0 0.00 0.00 0.00 58 1013.2
20260905140845 73 95 1.0 7.0 0.00 0.00 0.00 57 1013.2
20260905140544 73 23 1.0 7.0 0.00 0.00 0.00 57 1013.0
20260905140245 73 355 1.0 7.0 0.00 0.00 0.00 56 1013.0
20260905135944 73 351 2.0 5.0 0.00 0.00 0.00 58 1013.1
20260905135645 73 43 1.0 5.0 0.00 0.00 0.00 58 1013.0
20260905135344 73 285 1.0 5.0 0.00 0.00 0.00 57 1012.9
20260905135045 73 28 1.0 3.0 0.00 0.00 0.00 58 1012.9
20260905134731 73 90 1.0 3.0 0.00 0.00 0.00 58 1012.8
20260905133546 72 331 0.0 3.0 0.00 0.00 0.00 58 1012.9
20260905133248 72 344 1.0 3.0 0.00 0.00 0.00 60 1013.1
20260905132938 72 327 0.0 3.0 0.00 0.00 0.00 59 1013.1
20260905132632 72 40 0.0 3.0 0.00 0.00 0.00 58 1013.3
20260905132325 72 51 0.0 2.0 0.00 0.00 0.00 59 1013.2
20260905132023 72 51 0.0 2.0 0.00 0.00 0.00 60 1013.2
20260905131715 72 239 0.0 2.0 0.00 0.00 0.00 59 1013.3
20260905131413 72 355 0.0 0.0 0.00 0.00 0.00 60 1013.2
20260905130648 72 355 0.0 5.0 0.00 0.00 0.00 60 1013.2
20260905130353 72 305 0.0 5.0 0.00 0.00 0.00 60 1013.1
20260905130049 72 84 1.0 5.0 0.00 0.00 0.00 60 1013.0
20260905125743 72 111 1.0 5.0 0.00 0.00 0.00 60 1013.1
20260905125435 71 96 1.0 5.0 0.00 0.00 0.00 60 1013.0
20260905125127 71 98 0.0 5.0 0.00 0.00 0.00 60 1012.8
20260905124404 71 48 0.0 1.0 0.00 0.00 0.00 61 1013.0
20260905124108 71 42 0.0 0.0 0.00 0.00 0.00 60 1012.8
20260905123346 71 74 0.0 0.0 0.00 0.00 0.00 60 1012.8
20260905123034 71 98 0.0 0.0 0.00 0.00 0.00 61 1012.8
20260905122733 71 97 0.0 0.0 0.00 0.00 0.00 60 1012.8
20260905122435 71 97 0.0 0.0 0.00 0.00 0.00 60 1012.8
20260905122136 71 97 0.0 0.0 0.00 0.00 0.00 60 1012.8
20260905121826 71 97 0.0 0.0 0.00 0.00 0.00 60 1012.8
20260905121056 71 24 0.0 0.0 0.00 0.00 0.00 61 1012.8
20260905120757 71 24 0.0 0.0 0.00 0.00 0.00 61 1012.8
20260905120457 71 24 0.0 0.0 0.00 0.00 0.00 60 1012.8
20260905115733 71 331 0.0 0.0 0.00 0.00 0.00 61 1012.7
20260905115432 71 331 0.0 0.0 0.00 0.00 0.00 61 1012.7
20260905115135 71 331 0.0 0.0 0.00 0.00 0.00 61 1012.6
20260905114823 70 313 0.0 0.0 0.00 0.00 0.00 61 1012.5
20260905114522 70 39 0.0 0.0 0.00 0.00 0.00 61 1012.5
20260905114223 70 38 0.0 0.0 0.00 0.00 0.00 61 1012.5
20260905113923 70 38 0.0 0.0 0.00 0.00 0.00 61 1012.6
20260905113617 70 38 0.0 0.0 0.00 0.00 0.00 61 1012.6
20260905112842 70 5 0.0 0.0 0.00 0.00 0.00 61 1012.5
20260905112541 70 12 0.0 0.0 0.00 0.00 0.00 61 1012.5
20260905112243 70 322 0.0 0.0 0.00 0.00 0.00 61 1012.5
20260905111935 70 0 0.0 0.0 0.00 0.00 0.00 61 1012.5
20260905111627 70 331 0.0 0.0 0.00 0.00 0.00 61 1012.5
20260905111325 70 331 0.0 0.0 0.00 0.00 0.00 61 1012.5
20260905111015 70 338 0.0 2.0 0.00 0.00 0.00 61 1012.4
20260905110719 70 319 0.0 1.0 0.00 0.00 0.00 60 1012.5
20260905110001 70 21 0.0 2.0 0.00 0.00 0.00 60 1012.4
20260905105658 70 42 0.0 2.0 0.00 0.00 0.00 60 1012.4
20260905105402 70 96 0.0 2.0 0.00 0.00 0.00 60 1012.3
20260905105055 70 25 0.0 0.0 0.00 0.00 0.00 60 1012.3
20260905104757 70 25 0.0 0.0 0.00 0.00 0.00 60 1012.4
20260905104453 70 38 0.0 0.0 0.00 0.00 0.00 60 1012.3
20260905104148 70 43 0.0 0.0 0.00 0.00 0.00 60 1012.2
20260905103850 70 89 0.0 0.0 0.00 0.00 0.00 60 1012.1
20260905103548 70 103 0.0 5.0 0.00 0.00 0.00 60 1012.1
20260905103248 70 92 0.0 3.0 0.00 0.00 0.00 60 1012.2
20260905102935 70 85 0.0 2.0 0.00 0.00 0.00 61 1012.1
20260905102634 70 92 0.0 0.0 0.00 0.00 0.00 61 1012.1
20260905100549 71 78 0.0 0.0 0.00 0.00 0.00 61 1012.0
20260905100250 71 78 0.0 0.0 0.00 0.00 0.00 61 1011.9
20260905095951 71 78 0.0 0.0 0.00 0.00 0.00 61 1012.0
20260905095643 71 79 0.0 0.0 0.00 0.00 0.00 61 1011.8
20260905094502 71 121 0.0 7.0 0.00 0.00 0.00 61 1011.9
20260905094155 71 12 0.0 7.0 0.00 0.00 0.00 61 1011.8
20260905093007 72 9 0.0 7.0 0.00 0.00 0.00 61 1011.7
20260905092700 72 189 0.0 3.0 0.00 0.00 0.00 62 1011.8
20260905091928 72 12 0.0 4.0 0.00 0.00 0.00 62 1011.9
20260905091622 72 346 0.0 4.0 0.00 0.00 0.00 62 1011.8
20260905090900 72 76 1.0 4.0 0.00 0.00 0.00 62 1011.7
20260905090552 72 95 1.0 4.0 0.00 0.00 0.00 62 1011.7
20260905090254 72 29 1.0 4.0 0.00 0.00 0.00 62 1011.6
20260905085954 73 117 1.0 3.0 0.00 0.00 0.00 63 1011.7
20260905085640 73 55 1.0 3.0 0.00 0.00 0.00 63 1011.7
20260905085327 73 90 1.0 3.0 0.00 0.00 0.00 63 1011.6
20260905085024 73 82 1.0 3.0 0.00 0.00 0.00 63 1011.5
20260905083900 73 73 0.0 3.0 0.00 0.00 0.00 64 1011.4
20260905083550 73 37 0.0 2.0 0.00 0.00 0.00 64 1011.5
20260905083251 73 48 0.0 2.0 0.00 0.00 0.00 64 1011.5
20260905082941 73 82 0.0 2.0 0.00 0.00 0.00 64 1011.4